User: anonymous   Login
Location: Unspecified
(0.0000°N, 0.0000°E)
Time: 13:11:24
(UTC+00:00)
Language:

Vanguard 1 - Orbit

View from above orbital plane
View from above orbital plane
View from above satellite
View from above satellite

Ground track
Ground track

The orbit data is extracted from the following two-line orbital elements,

1 00005U 58002B   15089.09362918  .00000761  00000-0  10065-2 0  9999
2 00005 034.2468 339.9949 1844434 055.1040 320.9353 10.84545459998324
Epoch (UTC): 30 March 2015 02:14:49
Eccentricity: 0.1844434
inclination: 34.2468°
perigee height: 653 km
apogee height: 3833 km
right ascension of ascending node: 339.9949°
argument of perigee: 55.1040°
revolutions per day: 10.84545459
mean anomaly at epoch: 320.9353°
orbit number at epoch: 99832

The dashed part of the orbit path shows where the satellite is in the earth's shadow,  

DLR